User: anonymous   Login
Location: Brachbach
(49.1847°N, 9.7240°E)
Time: 18:48:38
(UTC+00:00)
Language:

IDEFIX/ARIANE 42P - Orbit

View from above orbital plane
View from above orbital plane
View from above satellite
View from above satellite

Ground track
Ground track

The orbit data is extracted from the following two-line orbital elements,

1 27422U 02021B   24198.11521560  .00000494  00000-0  20735-3 0  9994
2 27422  98.5275 135.2231 0012366 153.4986 206.6831 14.30167721156107
Epoch (UTC): 16 July 2024 02:45:54
Eccentricity: 0.0012366
inclination: 98.5275°
perigee height: 782 km
apogee height: 800 km
right ascension of ascending node: 135.2231°
argument of perigee: 153.4986°
revolutions per day: 14.30167721
mean anomaly at epoch: 206.6831°
orbit number at epoch: 15610

The dashed part of the orbit path shows where the satellite is in the earth's shadow,  

DLR